| time (UTC) | temp F | wind direction | speed MPH | gust MPH | rain 1hr in | rain 24hr in | rain mn in | humidity % | barometer mb |
| 20260508014032 | 51 | 0 | 0.0 | 0.0 | 0.00 | 0.02 | 0.01 | 79 | 1016.3 |
| 20260508013530 | 51 | 0 | 0.0 | 0.0 | 0.00 | 0.02 | 0.01 | 78 | 1016.1 |
| 20260508013045 | 51 | 0 | 0.0 | 0.0 | 0.00 | 0.02 | 0.01 | 77 | 1016.1 |
| 20260508012530 | 52 | 0 | 0.0 | 0.0 | 0.00 | 0.02 | 0.01 | 76 | 1016.0 |
| 20260508012029 | 52 | 0 | 0.0 | 0.0 | 0.00 | 0.02 | 0.01 | 76 | 1016.0 |
| 20260508011544 | 53 | 0 | 0.0 | 0.0 | 0.00 | 0.02 | 0.01 | 75 | 1015.9 |
| 20260508011030 | 53 | 0 | 0.0 | 0.0 | 0.00 | 0.02 | 0.01 | 74 | 1015.8 |
| 20260508010530 | 54 | 0 | 0.0 | 0.0 | 0.00 | 0.02 | 0.01 | 73 | 1015.7 |
| 20260508010045 | 54 | 0 | 0.0 | 0.0 | 0.00 | 0.02 | 0.01 | 72 | 1015.8 |
| 20260508005532 | 55 | 0 | 0.0 | 0.0 | 0.00 | 0.02 | 0.01 | 71 | 1015.7 |
| 20260508005026 | 56 | 0 | 0.0 | 0.0 | 0.00 | 0.02 | 0.01 | 70 | 1015.6 |
| 20260508004552 | 56 | 0 | 0.0 | 0.0 | 0.00 | 0.02 | 0.01 | 69 | 1015.6 |
| 20260508004031 | 57 | 0 | 0.0 | 0.0 | 0.00 | 0.02 | 0.01 | 67 | 1015.5 |
| 20260508003530 | 57 | 0 | 0.0 | 0.0 | 0.00 | 0.02 | 0.01 | 67 | 1015.4 |
| 20260508003048 | 58 | 0 | 0.0 | 0.0 | 0.00 | 0.02 | 0.01 | 62 | 1015.5 |
| 20260508002532 | 58 | 0 | 0.0 | 1.0 | 0.00 | 0.02 | 0.01 | 62 | 1015.5 |
| 20260508002031 | 59 | 0 | 0.0 | 1.0 | 0.00 | 0.02 | 0.01 | 61 | 1015.4 |
| 20260508001547 | 59 | 0 | 0.0 | 0.0 | 0.00 | 0.02 | 0.01 | 58 | 1015.4 |
| 20260508001030 | 59 | 0 | 0.0 | 1.0 | 0.00 | 0.02 | 0.01 | 56 | 1015.4 |
| 20260508000533 | 60 | 0 | 0.0 | 1.0 | 0.00 | 0.02 | 0.01 | 55 | 1015.4 |
| 20260508000043 | 60 | 0 | 0.0 | 2.0 | 0.00 | 0.02 | 0.01 | 55 | 1015.3 |
| 20260507235530 | 60 | 0 | 0.0 | 3.0 | 0.00 | 0.06 | 0.01 | 54 | 1015.3 |
| 20260507235030 | 60 | 329 | 0.0 | 3.0 | 0.00 | 0.06 | 0.01 | 54 | 1015.3 |
| 20260507234544 | 61 | 339 | 0.0 | 3.0 | 0.00 | 0.06 | 0.01 | 53 | 1015.2 |
| 20260507234028 | 61 | 319 | 0.0 | 3.0 | 0.00 | 0.06 | 0.01 | 53 | 1015.1 |
| 20260507233529 | 61 | 309 | 0.0 | 3.0 | 0.00 | 0.06 | 0.01 | 52 | 1015.1 |
| 20260507233048 | 61 | 306 | 1.0 | 3.0 | 0.00 | 0.06 | 0.01 | 52 | 1015.2 |
| 20260507232527 | 61 | 0 | 0.0 | 3.0 | 0.00 | 0.06 | 0.01 | 53 | 1015.1 |
| 20260507232026 | 62 | 327 | 0.0 | 4.0 | 0.00 | 0.06 | 0.01 | 51 | 1015.2 |
| 20260507231552 | 62 | 336 | 0.0 | 4.0 | 0.00 | 0.06 | 0.01 | 53 | 1015.2 |
| 20260507231030 | 62 | 355 | 0.0 | 3.0 | 0.00 | 0.06 | 0.01 | 52 | 1015.2 |
| 20260507230526 | 62 | 0 | 1.0 | 3.0 | 0.00 | 0.06 | 0.01 | 52 | 1015.2 |
| 20260507230051 | 62 | 346 | 1.0 | 3.0 | 0.00 | 0.06 | 0.01 | 52 | 1015.3 |
| 20260507225528 | 62 | 336 | 0.0 | 4.0 | 0.00 | 0.10 | 0.01 | 53 | 1015.2 |
| 20260507225029 | 63 | 340 | 1.0 | 5.0 | 0.00 | 0.10 | 0.01 | 51 | 1015.2 |
| 20260507224550 | 63 | 306 | 2.0 | 5.0 | 0.00 | 0.10 | 0.01 | 51 | 1015.2 |
| 20260507224026 | 63 | 12 | 2.0 | 5.0 | 0.00 | 0.10 | 0.01 | 49 | 1015.3 |
| 20260507223526 | 63 | 302 | 0.0 | 5.0 | 0.00 | 0.10 | 0.01 | 48 | 1015.3 |
| 20260507223049 | 64 | 0 | 1.0 | 5.0 | 0.00 | 0.10 | 0.01 | 48 | 1015.2 |
| 20260507222527 | 64 | 339 | 1.0 | 4.0 | 0.00 | 0.10 | 0.01 | 49 | 1015.3 |
| 20260507222027 | 64 | 294 | 0.0 | 3.0 | 0.00 | 0.10 | 0.01 | 46 | 1015.2 |
| 20260507221541 | 64 | 308 | 0.0 | 3.0 | 0.00 | 0.10 | 0.01 | 48 | 1015.3 |
| 20260507221026 | 64 | 225 | 0.0 | 3.0 | 0.00 | 0.10 | 0.01 | 49 | 1015.3 |
| 20260507220526 | 65 | 0 | 0.0 | 7.0 | 0.00 | 0.10 | 0.01 | 48 | 1015.2 |
| 20260507220040 | 65 | 213 | 2.0 | 7.0 | 0.00 | 0.10 | 0.01 | 49 | 1015.3 |
| 20260507215527 | 65 | 0 | 1.0 | 6.0 | 0.00 | 0.10 | 0.01 | 51 | 1015.3 |
| 20260507215027 | 65 | 350 | 2.0 | 6.0 | 0.00 | 0.10 | 0.01 | 48 | 1015.2 |
| 20260507214546 | 65 | 351 | 1.0 | 10.0 | 0.00 | 0.10 | 0.01 | 50 | 1015.2 |
| 20260507214026 | 65 | 234 | 1.0 | 10.0 | 0.00 | 0.10 | 0.01 | 52 | 1015.3 |
| 20260507213529 | 66 | 340 | 2.0 | 9.0 | 0.00 | 0.10 | 0.01 | 48 | 1015.1 |
| 20260507213046 | 66 | 15 | 2.0 | 5.0 | 0.00 | 0.10 | 0.01 | 50 | 1015.1 |
| 20260507212526 | 67 | 313 | 1.0 | 5.0 | 0.00 | 0.10 | 0.01 | 48 | 1015.1 |
| 20260507212026 | 66 | 239 | 1.0 | 6.0 | 0.00 | 0.10 | 0.01 | 52 | 1015.1 |
| 20260507211545 | 66 | 288 | 1.0 | 6.0 | 0.00 | 0.10 | 0.01 | 47 | 1015.1 |
| 20260507211026 | 66 | 319 | 2.0 | 8.0 | 0.00 | 0.10 | 0.01 | 51 | 1015.1 |
| 20260507210529 | 66 | 307 | 3.0 | 8.0 | 0.00 | 0.10 | 0.01 | 47 | 1015.0 |
| 20260507210042 | 67 | 342 | 1.0 | 5.0 | 0.00 | 0.10 | 0.01 | 50 | 1015.0 |
| 20260507205526 | 67 | 0 | 1.0 | 6.0 | 0.00 | 0.10 | 0.01 | 46 | 1014.9 |
| 20260507205026 | 66 | 223 | 2.0 | 6.0 | 0.00 | 0.10 | 0.01 | 52 | 1014.9 |
| 20260507204540 | 66 | 278 | 1.0 | 5.0 | 0.00 | 0.10 | 0.01 | 51 | 1015.0 |
| 20260507204027 | 65 | 329 | 1.0 | 5.0 | 0.00 | 0.10 | 0.01 | 54 | 1015.1 |
| 20260507203527 | 65 | 322 | 2.0 | 5.0 | 0.00 | 0.10 | 0.01 | 52 | 1015.1 |
| 20260507203057 | 65 | 342 | 2.0 | 5.0 | 0.00 | 0.10 | 0.01 | 47 | 1015.0 |
| 20260507202526 | 65 | 319 | 1.0 | 3.0 | 0.00 | 0.10 | 0.01 | 46 | 1015.1 |
| 20260507202026 | 66 | 336 | 1.0 | 7.0 | 0.00 | 0.10 | 0.01 | 48 | 1015.2 |
| 20260507201548 | 66 | 294 | 2.0 | 7.0 | 0.00 | 0.10 | 0.01 | 49 | 1015.1 |
| 20260507201026 | 66 | 293 | 1.0 | 9.0 | 0.00 | 0.10 | 0.01 | 51 | 1015.1 |
| 20260507200526 | 65 | 262 | 2.0 | 9.0 | 0.00 | 0.10 | 0.01 | 50 | 1015.2 |
| 20260507200050 | 65 | 334 | 3.0 | 9.0 | 0.00 | 0.10 | 0.01 | 49 | 1015.2 |
| 20260507195528 | 65 | 329 | 2.0 | 8.0 | 0.00 | 0.10 | 0.01 | 55 | 1015.3 |
| 20260507195026 | 65 | 27 | 2.0 | 9.0 | 0.00 | 0.10 | 0.01 | 53 | 1015.3 |
| 20260507194544 | 66 | 5 | 2.0 | 9.0 | 0.00 | 0.10 | 0.01 | 49 | 1015.3 |
| 20260507194027 | 66 | 280 | 3.0 | 9.0 | 0.00 | 0.10 | 0.01 | 49 | 1015.4 |
| 20260507193527 | 66 | 5 | 1.0 | 8.0 | 0.00 | 0.10 | 0.01 | 53 | 1015.4 |
| 20260507193043 | 65 | 235 | 2.0 | 8.0 | 0.00 | 0.10 | 0.01 | 50 | 1015.5 |
| 20260507192529 | 65 | 349 | 2.0 | 7.0 | 0.00 | 0.10 | 0.01 | 51 | 1015.6 |
| 20260507192026 | 65 | 279 | 2.0 | 6.0 | 0.00 | 0.10 | 0.01 | 54 | 1015.5 |
| 20260507191540 | 65 | 318 | 2.0 | 8.0 | 0.00 | 0.10 | 0.01 | 51 | 1015.5 |
| 20260507191028 | 65 | 292 | 3.0 | 12.0 | 0.00 | 0.10 | 0.01 | 48 | 1015.5 |
| 20260507190529 | 65 | 333 | 2.0 | 12.0 | 0.00 | 0.10 | 0.01 | 50 | 1015.6 |
| 20260507190048 | 65 | 355 | 3.0 | 8.0 | 0.00 | 0.10 | 0.01 | 51 | 1015.5 |
| 20260507185529 | 65 | 347 | 1.0 | 10.0 | 0.00 | 0.10 | 0.01 | 54 | 1015.4 |
| 20260507185028 | 65 | 173 | 1.0 | 10.0 | 0.00 | 0.10 | 0.01 | 57 | 1015.6 |
| 20260507184547 | 65 | 49 | 4.0 | 10.0 | 0.00 | 0.10 | 0.01 | 53 | 1015.6 |
| 20260507184026 | 64 | 306 | 2.0 | 10.0 | 0.00 | 0.10 | 0.01 | 54 | 1015.6 |
| 20260507183526 | 64 | 334 | 3.0 | 10.0 | 0.00 | 0.10 | 0.01 | 51 | 1015.6 |
| 20260507183045 | 64 | 333 | 4.0 | 10.0 | 0.00 | 0.10 | 0.01 | 53 | 1015.6 |
| 20260507182528 | 65 | 251 | 2.0 | 8.0 | 0.00 | 0.10 | 0.01 | 53 | 1015.6 |
| 20260507182027 | 65 | 330 | 3.0 | 8.0 | 0.00 | 0.10 | 0.01 | 53 | 1015.7 |
| 20260507181547 | 65 | 288 | 2.0 | 8.0 | 0.00 | 0.10 | 0.01 | 54 | 1015.7 |
| 20260507181031 | 65 | 5 | 1.0 | 4.0 | 0.00 | 0.10 | 0.01 | 51 | 1015.7 |
| 20260507180525 | 65 | 261 | 2.0 | 4.0 | 0.00 | 0.10 | 0.01 | 56 | 1015.7 |
| 20260507180045 | 64 | 203 | 1.0 | 8.0 | 0.00 | 0.10 | 0.01 | 56 | 1015.8 |
| 20260507175527 | 64 | 42 | 3.0 | 8.0 | 0.00 | 0.10 | 0.01 | 50 | 1015.8 |
| 20260507175029 | 64 | 327 | 2.0 | 9.0 | 0.00 | 0.10 | 0.01 | 51 | 1016.0 |
| 20260507174600 | 64 | 348 | 3.0 | 10.0 | 0.00 | 0.10 | 0.01 | 54 | 1016.0 |
| 20260507174028 | 64 | 63 | 3.0 | 10.0 | 0.00 | 0.10 | 0.01 | 49 | 1015.9 |
| 20260507173526 | 64 | 343 | 2.0 | 10.0 | 0.00 | 0.10 | 0.01 | 52 | 1016.0 |
| 20260507173056 | 63 | 26 | 2.0 | 10.0 | 0.00 | 0.10 | 0.01 | 53 | 1016.0 |
| 20260507172529 | 64 | 319 | 4.0 | 10.0 | 0.00 | 0.10 | 0.01 | 53 | 1016.3 |
| 20260507172026 | 63 | 328 | 1.0 | 10.0 | 0.00 | 0.10 | 0.01 | 49 | 1016.2 |
| 20260507171604 | 64 | 355 | 3.0 | 10.0 | 0.00 | 0.10 | 0.01 | 56 | 1016.3 |
| 20260507171029 | 63 | 304 | 1.0 | 6.0 | 0.00 | 0.10 | 0.01 | 57 | 1016.4 |
| 20260507170527 | 63 | 57 | 2.0 | 8.0 | 0.00 | 0.10 | 0.01 | 57 | 1016.4 |
| 20260507170046 | 63 | 360 | 3.0 | 8.0 | 0.00 | 0.10 | 0.01 | 54 | 1016.5 |
| 20260507165526 | 63 | 78 | 3.0 | 10.0 | 0.00 | 0.10 | 0.01 | 54 | 1016.6 |
| 20260507165026 | 63 | 308 | 4.0 | 10.0 | 0.00 | 0.10 | 0.01 | 52 | 1016.6 |
| 20260507164600 | 63 | 270 | 2.0 | 9.0 | 0.00 | 0.10 | 0.01 | 57 | 1016.8 |
| 20260507164029 | 63 | 351 | 4.0 | 9.0 | 0.00 | 0.10 | 0.01 | 52 | 1016.8 |
| 20260507163529 | 63 | 355 | 1.0 | 12.0 | 0.00 | 0.10 | 0.01 | 56 | 1016.8 |
| 20260507163042 | 63 | 344 | 3.0 | 12.0 | 0.00 | 0.10 | 0.01 | 59 | 1016.8 |
| 20260507162529 | 62 | 338 | 3.0 | 8.0 | 0.00 | 0.10 | 0.01 | 59 | 1016.8 |
| 20260507162029 | 62 | 341 | 2.0 | 10.0 | 0.00 | 0.10 | 0.01 | 60 | 1016.8 |
| 20260507161547 | 62 | 82 | 2.0 | 10.0 | 0.00 | 0.10 | 0.01 | 59 | 1016.8 |
| 20260507161028 | 62 | 52 | 3.0 | 8.0 | 0.00 | 0.10 | 0.01 | 59 | 1016.7 |
| 20260507160529 | 62 | 68 | 4.0 | 8.0 | 0.00 | 0.10 | 0.01 | 58 | 1016.7 |
| 20260507160048 | 62 | 360 | 2.0 | 9.0 | 0.00 | 0.10 | 0.01 | 61 | 1016.8 |
| 20260507155528 | 62 | 336 | 4.0 | 9.0 | 0.00 | 0.10 | 0.01 | 58 | 1016.8 |
| 20260507155028 | 62 | 298 | 2.0 | 8.0 | 0.00 | 0.10 | 0.01 | 61 | 1016.8 |
| 20260507154547 | 62 | 300 | 2.0 | 8.0 | 0.00 | 0.10 | 0.01 | 62 | 1016.7 |
| 20260507154026 | 61 | 261 | 1.0 | 8.0 | 0.00 | 0.10 | 0.01 | 64 | 1016.7 |
| 20260507153529 | 61 | 270 | 2.0 | 8.0 | 0.00 | 0.10 | 0.01 | 62 | 1016.7 |
| 20260507153049 | 60 | 72 | 2.0 | 9.0 | 0.00 | 0.10 | 0.01 | 59 | 1016.7 |
| 20260507152529 | 61 | 48 | 3.0 | 10.0 | 0.00 | 0.10 | 0.01 | 59 | 1016.7 |
| 20260507152029 | 61 | 11 | 3.0 | 10.0 | 0.00 | 0.10 | 0.01 | 58 | 1016.8 |
| 20260507151544 | 61 | 360 | 4.0 | 9.0 | 0.00 | 0.10 | 0.01 | 61 | 1016.8 |
| 20260507151029 | 61 | 17 | 2.0 | 8.0 | 0.00 | 0.10 | 0.01 | 60 | 1016.7 |
| 20260507150529 | 61 | 331 | 1.0 | 8.0 | 0.00 | 0.10 | 0.01 | 65 | 1016.8 |
| 20260507150041 | 60 | 0 | 2.0 | 8.0 | 0.00 | 0.10 | 0.01 | 62 | 1016.8 |
| 20260507145528 | 59 | 50 | 2.0 | 9.0 | 0.00 | 0.10 | 0.01 | 68 | 1016.8 |
| 20260507145029 | 59 | 313 | 4.0 | 10.0 | 0.00 | 0.10 | 0.01 | 66 | 1016.8 |
| 20260507144549 | 59 | 51 | 3.0 | 10.0 | 0.00 | 0.10 | 0.01 | 65 | 1016.9 |
| 20260507144029 | 59 | 355 | 3.0 | 13.0 | 0.00 | 0.10 | 0.01 | 64 | 1016.9 |
| 20260507143528 | 59 | 355 | 3.0 | 13.0 | 0.00 | 0.10 | 0.01 | 67 | 1017.0 |
| 20260507143050 | 59 | 71 | 3.0 | 10.0 | 0.00 | 0.10 | 0.01 | 69 | 1017.0 |
| 20260507142529 | 58 | 337 | 2.0 | 7.0 | 0.00 | 0.10 | 0.01 | 70 | 1017.0 |
| 20260507142026 | 58 | 11 | 2.0 | 6.0 | 0.00 | 0.10 | 0.01 | 73 | 1016.7 |
| 20260507141552 | 57 | 42 | 2.0 | 9.0 | 0.00 | 0.10 | 0.01 | 71 | 1016.6 |
| 20260507141028 | 56 | 54 | 3.0 | 9.0 | 0.00 | 0.10 | 0.01 | 73 | 1016.7 |
| 20260507140527 | 56 | 355 | 4.0 | 9.0 | 0.00 | 0.10 | 0.01 | 72 | 1016.8 |
| 20260507140045 | 56 | 15 | 4.0 | 9.0 | 0.00 | 0.10 | 0.01 | 70 | 1016.7 |
| 20260507135529 | 56 | 335 | 3.0 | 8.0 | 0.00 | 0.10 | 0.01 | 73 | 1016.6 |
| 20260507135029 | 56 | 26 | 2.0 | 12.0 | 0.00 | 0.10 | 0.01 | 74 | 1016.6 |
| 20260507134552 | 56 | 304 | 3.0 | 12.0 | 0.00 | 0.10 | 0.01 | 74 | 1016.5 |
| 20260507134028 | 56 | 11 | 2.0 | 6.0 | 0.00 | 0.10 | 0.01 | 75 | 1016.4 |
| 20260507133529 | 56 | 355 | 2.0 | 6.0 | 0.00 | 0.10 | 0.01 | 76 | 1016.5 |
| 20260507133057 | 55 | 22 | 2.0 | 6.0 | 0.00 | 0.10 | 0.01 | 79 | 1016.4 |
| 20260507132529 | 55 | 49 | 2.0 | 4.0 | 0.00 | 0.10 | 0.01 | 79 | 1016.4 |
| 20260507132028 | 54 | 5 | 2.0 | 4.0 | 0.00 | 0.10 | 0.01 | 82 | 1016.4 |
| 20260507131553 | 54 | 68 | 1.0 | 9.0 | 0.00 | 0.10 | 0.01 | 82 | 1016.3 |
| 20260507131029 | 53 | 355 | 3.0 | 9.0 | 0.00 | 0.10 | 0.01 | 81 | 1016.3 |
| 20260507130529 | 53 | 28 | 2.0 | 6.0 | 0.00 | 0.10 | 0.01 | 84 | 1016.3 |
| 20260507130047 | 52 | 330 | 2.0 | 10.0 | 0.00 | 0.10 | 0.01 | 85 | 1016.5 |
| 20260507125530 | 52 | 335 | 2.0 | 10.0 | 0.00 | 0.11 | 0.01 | 88 | 1016.4 |
| 20260507125028 | 52 | 319 | 1.0 | 9.0 | 0.00 | 0.11 | 0.01 | 89 | 1016.4 |
| 20260507124550 | 51 | 355 | 3.0 | 9.0 | 0.00 | 0.11 | 0.01 | 88 | 1016.4 |
| 20260507124029 | 51 | 360 | 1.0 | 4.0 | 0.00 | 0.11 | 0.01 | 92 | 1016.3 |
| 20260507123529 | 50 | 0 | 1.0 | 3.0 | 0.00 | 0.11 | 0.01 | 93 | 1016.3 |
| 20260507123044 | 50 | 355 | 1.0 | 3.0 | 0.00 | 0.11 | 0.01 | 94 | 1016.2 |
| 20260507122529 | 49 | 0 | 1.0 | 6.0 | 0.00 | 0.11 | 0.01 | 95 | 1016.2 |
| 20260507122029 | 49 | 22 | 1.0 | 6.0 | 0.00 | 0.11 | 0.01 | 96 | 1016.2 |
| 20260507121543 | 48 | 317 | 1.0 | 3.0 | 0.00 | 0.11 | 0.01 | 98 | 1016.2 |
| 20260507121032 | 48 | 355 | 0.0 | 3.0 | 0.00 | 0.11 | 0.01 | 98 | 1016.1 |
| 20260507120529 | 47 | 0 | 0.0 | 2.0 | 0.00 | 0.11 | 0.01 | 98 | 1016.1 |
| 20260507120042 | 47 | 0 | 0.0 | 3.0 | 0.00 | 0.11 | 0.01 | 97 | 1016.1 |
| 20260507115529 | 46 | 0 | 0.0 | 4.0 | 0.00 | 0.14 | 0.01 | 97 | 1016.0 |
| 20260507115025 | 46 | 360 | 0.0 | 4.0 | 0.00 | 0.14 | 0.01 | 98 | 1015.9 |
| 20260507114541 | 46 | 0 | 0.0 | 2.0 | 0.00 | 0.14 | 0.01 | 97 | 1015.9 |
| 20260507114026 | 46 | 324 | 0.0 | 2.0 | 0.00 | 0.14 | 0.01 | 98 | 1015.8 |
| 20260507113526 | 45 | 0 | 0.0 | 1.0 | 0.00 | 0.14 | 0.01 | 97 | 1015.8 |
| 20260507113048 | 45 | 0 | 0.0 | 1.0 | 0.00 | 0.14 | 0.01 | 97 | 1015.9 |
| 20260507112529 | 45 | 0 | 0.0 | 1.0 | 0.00 | 0.14 | 0.01 | 97 | 1015.8 |
| 20260507112029 | 45 | 0 | 0.0 | 1.0 | 0.00 | 0.14 | 0.01 | 97 | 1015.7 |
| 20260507111547 | 45 | 0 | 0.0 | 1.0 | 0.00 | 0.14 | 0.01 | 97 | 1015.7 |
| 20260507111025 | 45 | 0 | 0.0 | 1.0 | 0.00 | 0.14 | 0.01 | 97 | 1015.5 |
| 20260507110528 | 45 | 302 | 0.0 | 1.0 | 0.00 | 0.14 | 0.01 | 97 | 1015.5 |
| 20260507110059 | 45 | 0 | 0.0 | 1.0 | 0.00 | 0.14 | 0.01 | 97 | 1015.5 |
| 20260507105529 | 45 | 0 | 0.0 | 1.0 | 0.00 | 0.28 | 0.01 | 97 | 1015.4 |
| 20260507105026 | 45 | 0 | 0.0 | 1.0 | 0.00 | 0.28 | 0.01 | 97 | 1015.4 |
| 20260507104543 | 45 | 0 | 0.0 | 1.0 | 0.00 | 0.28 | 0.01 | 96 | 1015.3 |
| 20260507104029 | 45 | 298 | 0.0 | 1.0 | 0.00 | 0.28 | 0.01 | 96 | 1015.3 |
| 20260507103528 | 45 | 0 | 0.0 | 1.0 | 0.00 | 0.28 | 0.01 | 97 | 1015.2 |
| 20260507103041 | 45 | 0 | 0.0 | 1.0 | 0.00 | 0.28 | 0.01 | 97 | 1015.1 |
| 20260507102528 | 45 | 0 | 0.0 | 3.0 | 0.00 | 0.28 | 0.01 | 97 | 1015.1 |
| 20260507102029 | 45 | 0 | 0.0 | 3.0 | 0.00 | 0.28 | 0.01 | 96 | 1015.1 |
| 20260507101549 | 45 | 0 | 0.0 | 3.0 | 0.00 | 0.28 | 0.01 | 96 | 1015.0 |
| 20260507101028 | 45 | 0 | 0.0 | 0.0 | 0.00 | 0.28 | 0.01 | 96 | 1015.0 |
| 20260507100528 | 45 | 0 | 0.0 | 0.0 | 0.00 | 0.28 | 0.01 | 96 | 1015.0 |
| 20260507100049 | 45 | 0 | 0.0 | 1.0 | 0.01 | 0.28 | 0.01 | 96 | 1014.9 |
| 20260507095530 | 46 | 0 | 0.0 | 1.0 | 0.01 | 0.30 | 0.01 | 96 | 1015.1 |
| 20260507095027 | 46 | 0 | 0.0 | 1.0 | 0.01 | 0.30 | 0.01 | 96 | 1015.1 |
| 20260507094553 | 46 | 0 | 0.0 | 0.0 | 0.01 | 0.30 | 0.01 | 96 | 1015.0 |
| 20260507094025 | 46 | 0 | 0.0 | 0.0 | 0.01 | 0.30 | 0.01 | 96 | 1015.1 |
| 20260507093529 | 46 | 0 | 0.0 | 0.0 | 0.01 | 0.30 | 0.01 | 96 | 1014.9 |
| 20260507093052 | 47 | 0 | 0.0 | 0.0 | 0.01 | 0.30 | 0.01 | 96 | 1015.0 |
| 20260507092533 | 47 | 0 | 0.0 | 0.0 | 0.01 | 0.30 | 0.01 | 97 | 1014.9 |
| 20260507092029 | 47 | 0 | 0.0 | 0.0 | 0.01 | 0.30 | 0.01 | 97 | 1015.1 |
| 20260507091559 | 47 | 0 | 0.0 | 1.0 | 0.01 | 0.30 | 0.01 | 97 | 1014.9 |
| 20260507091032 | 47 | 0 | 0.0 | 1.0 | 0.01 | 0.30 | 0.01 | 96 | 1014.9 |
| 20260507090529 | 47 | 0 | 0.0 | 1.0 | 0.01 | 0.30 | 0.01 | 96 | 1015.0 |
| 20260507090046 | 47 | 0 | 0.0 | 1.0 | 0.00 | 0.29 | 0.00 | 96 | 1015.0 |
| 20260507085529 | 47 | 0 | 0.0 | 1.0 | 0.00 | 0.36 | 0.00 | 96 | 1014.7 |
| 20260507085029 | 47 | 0 | 0.0 | 1.0 | 0.00 | 0.36 | 0.00 | 96 | 1014.8 |
| 20260507084553 | 48 | 0 | 0.0 | 1.0 | 0.00 | 0.36 | 0.00 | 96 | 1014.9 |
| 20260507084029 | 48 | 0 | 0.0 | 1.0 | 0.00 | 0.36 | 0.00 | 96 | 1014.9 |
| 20260507083529 | 48 | 0 | 0.0 | 1.0 | 0.00 | 0.36 | 0.00 | 96 | 1015.0 |
| 20260507083048 | 48 | 0 | 0.0 | 1.0 | 0.00 | 0.36 | 0.00 | 96 | 1015.0 |
| 20260507082528 | 48 | 0 | 0.0 | 1.0 | 0.00 | 0.36 | 0.00 | 96 | 1015.1 |
| 20260507082028 | 48 | 0 | 0.0 | 0.0 | 0.00 | 0.36 | 0.00 | 96 | 1014.9 |
| 20260507081548 | 48 | 0 | 0.0 | 1.0 | 0.00 | 0.36 | 0.00 | 96 | 1014.8 |
| 20260507081028 | 49 | 0 | 0.0 | 1.0 | 0.00 | 0.36 | 0.00 | 96 | 1014.7 |
| 20260507080528 | 49 | 0 | 0.0 | 0.0 | 0.00 | 0.36 | 0.00 | 96 | 1014.7 |
| 20260507080044 | 49 | 0 | 0.0 | 0.0 | 0.00 | 0.36 | 0.00 | 96 | 1014.6 |
| 20260507075528 | 49 | 0 | 0.0 | 0.0 | 0.00 | 0.43 | 0.00 | 97 | 1014.6 |
| 20260507075028 | 49 | 0 | 0.0 | 0.0 | 0.00 | 0.43 | 0.00 | 97 | 1014.7 |
| 20260507074546 | 49 | 0 | 0.0 | 1.0 | 0.00 | 0.43 | 0.00 | 97 | 1014.7 |
| 20260507074028 | 49 | 0 | 0.0 | 1.0 | 0.00 | 0.43 | 0.00 | 97 | 1014.6 |
| 20260507073528 | 49 | 0 | 0.0 | 0.0 | 0.00 | 0.43 | 0.00 | 97 | 1014.9 |
| 20260507073043 | 49 | 0 | 0.0 | 0.0 | 0.00 | 0.43 | 0.00 | 97 | 1014.9 |
| 20260507072529 | 49 | 0 | 0.0 | 0.0 | 0.00 | 0.43 | 0.00 | 97 | 1015.0 |
| 20260507072026 | 49 | 0 | 0.0 | 0.0 | 0.00 | 0.43 | 0.00 | 97 | 1014.9 |
| 20260507071541 | 49 | 0 | 0.0 | 2.0 | 0.00 | 0.43 | 0.00 | 97 | 1014.9 |
| 20260507071029 | 50 | 0 | 0.0 | 2.0 | 0.00 | 0.43 | 0.00 | 97 | 1015.1 |
| 20260507070529 | 50 | 326 | 0.0 | 2.0 | 0.00 | 0.43 | 0.00 | 97 | 1014.9 |
| 20260507070057 | 50 | 0 | 0.0 | 0.0 | 0.00 | 0.43 | 0.00 | 97 | 1015.3 |
| 20260507065528 | 50 | 0 | 0.0 | 0.0 | 0.00 | 0.54 | 0.00 | 97 | 1015.3 |
| 20260507065028 | 50 | 0 | 0.0 | 0.0 | 0.00 | 0.54 | 0.00 | 97 | 1015.2 |
| 20260507064549 | 50 | 0 | 0.0 | 0.0 | 0.00 | 0.54 | 0.00 | 97 | 1015.3 |
| 20260507064030 | 50 | 0 | 0.0 | 0.0 | 0.00 | 0.54 | 0.00 | 97 | 1015.3 |
| 20260507063528 | 50 | 0 | 0.0 | 0.0 | 0.00 | 0.54 | 0.00 | 97 | 1015.1 |
| 20260507063051 | 50 | 0 | 0.0 | 0.0 | 0.00 | 0.54 | 0.00 | 97 | 1014.9 |
| 20260507062527 | 50 | 0 | 0.0 | 0.0 | 0.00 | 0.54 | 0.00 | 97 | 1014.9 |
| 20260507062029 | 50 | 0 | 0.0 | 0.0 | 0.00 | 0.54 | 0.00 | 97 | 1014.9 |
| 20260507061548 | 50 | 0 | 0.0 | 0.0 | 0.00 | 0.54 | 0.00 | 97 | 1015.0 |
| 20260507061029 | 50 | 0 | 0.0 | 0.0 | 0.00 | 0.54 | 0.00 | 97 | 1014.9 |
| 20260507060530 | 50 | 0 | 0.0 | 0.0 | 0.00 | 0.54 | 0.00 | 97 | 1014.7 |
| 20260507060100 | 50 | 0 | 0.0 | 0.0 | 0.00 | 0.54 | 0.00 | 97 | 1014.8 |
| 20260507055527 | 50 | 0 | 0.0 | 0.0 | 0.00 | 0.57 | 0.00 | 97 | 1014.6 |
| 20260507055027 | 50 | 0 | 0.0 | 0.0 | 0.00 | 0.57 | 0.00 | 97 | 1014.7 |
| 20260507054547 | 50 | 0 | 0.0 | 0.0 | 0.00 | 0.57 | 0.00 | 97 | 1014.8 |
| 20260507054029 | 50 | 0 | 0.0 | 0.0 | 0.00 | 0.57 | 0.00 | 96 | 1014.9 |
| 20260507053530 | 50 | 0 | 0.0 | 0.0 | 0.00 | 0.57 | 0.00 | 96 | 1015.0 |
| 20260507053050 | 50 | 0 | 0.0 | 0.0 | 0.00 | 0.57 | 0.00 | 96 | 1015.2 |
| 20260507052527 | 50 | 0 | 0.0 | 1.0 | 0.00 | 0.57 | 0.00 | 96 | 1015.0 |
| 20260507052027 | 50 | 0 | 0.0 | 1.0 | 0.00 | 0.57 | 0.00 | 96 | 1015.0 |
| 20260507051542 | 50 | 0 | 0.0 | 1.0 | 0.00 | 0.57 | 0.00 | 96 | 1015.2 |
| 20260507051028 | 50 | 0 | 0.0 | 1.0 | 0.00 | 0.57 | 0.00 | 96 | 1015.4 |
| 20260507050526 | 50 | 0 | 0.0 | 0.0 | 0.00 | 0.57 | 0.00 | 96 | 1015.5 |
| 20260507050043 | 51 | 0 | 0.0 | 0.0 | 0.00 | 0.57 | 0.00 | 96 | 1015.4 |
| 20260507045527 | 51 | 0 | 0.0 | 2.0 | 0.00 | 0.57 | 0.57 | 96 | 1015.4 |
| 20260507045028 | 51 | 0 | 0.0 | 2.0 | 0.00 | 0.57 | 0.57 | 96 | 1015.3 |
| 20260507044541 | 51 | 326 | 0.0 | 2.0 | 0.00 | 0.57 | 0.57 | 96 | 1015.3 |
| 20260507044029 | 51 | 0 | 0.0 | 1.0 | 0.00 | 0.57 | 0.57 | 96 | 1015.6 |
| 20260507043529 | 51 | 0 | 0.0 | 1.0 | 0.00 | 0.57 | 0.57 | 96 | 1015.6 |
| 20260507043042 | 51 | 0 | 0.0 | 0.0 | 0.00 | 0.57 | 0.57 | 96 | 1015.8 |
| 20260507042527 | 51 | 0 | 0.0 | 0.0 | 0.00 | 0.57 | 0.57 | 96 | 1015.5 |
| 20260507042026 | 51 | 0 | 0.0 | 0.0 | 0.00 | 0.57 | 0.57 | 96 | 1015.6 |
| 20260507041550 | 51 | 0 | 0.0 | 0.0 | 0.00 | 0.57 | 0.57 | 96 | 1015.3 |
| 20260507041027 | 51 | 0 | 0.0 | 0.0 | 0.00 | 0.57 | 0.57 | 96 | 1015.0 |
| 20260507040529 | 51 | 0 | 0.0 | 0.0 | 0.00 | 0.57 | 0.57 | 96 | 1015.1 |
| 20260507040049 | 51 | 0 | 0.0 | 0.0 | 0.00 | 0.57 | 0.57 | 96 | 1015.0 |
| 20260507035526 | 52 | 0 | 0.0 | 1.0 | 0.00 | 0.57 | 0.57 | 96 | 1015.2 |
| 20260507035028 | 52 | 0 | 0.0 | 1.0 | 0.00 | 0.57 | 0.57 | 96 | 1015.2 |
| 20260507034557 | 52 | 0 | 0.0 | 1.0 | 0.00 | 0.57 | 0.57 | 96 | 1015.0 |
| 20260507034030 | 52 | 0 | 0.0 | 1.0 | 0.00 | 0.57 | 0.57 | 96 | 1015.0 |
| 20260507033530 | 52 | 0 | 0.0 | 1.0 | 0.00 | 0.57 | 0.57 | 96 | 1015.0 |
| 20260507033049 | 52 | 0 | 0.0 | 1.0 | 0.00 | 0.57 | 0.57 | 96 | 1015.3 |
| 20260507032529 | 52 | 0 | 0.0 | 1.0 | 0.00 | 0.57 | 0.57 | 96 | 1015.3 |
| 20260507032027 | 52 | 0 | 0.0 | 1.0 | 0.00 | 0.57 | 0.57 | 96 | 1015.2 |
| 20260507031543 | 52 | 0 | 0.0 | 0.0 | 0.00 | 0.57 | 0.57 | 96 | 1015.2 |
| 20260507031029 | 52 | 0 | 0.0 | 0.0 | 0.00 | 0.57 | 0.57 | 96 | 1015.1 |
| 20260507030527 | 52 | 0 | 0.0 | 0.0 | 0.00 | 0.57 | 0.57 | 96 | 1015.0 |
| 20260507030041 | 52 | 0 | 0.0 | 2.0 | 0.00 | 0.57 | 0.57 | 96 | 1015.1 |
| 20260507025527 | 52 | 0 | 0.0 | 2.0 | 0.00 | 0.57 | 0.57 | 96 | 1014.8 |
| 20260507025027 | 52 | 0 | 0.0 | 2.0 | 0.00 | 0.57 | 0.57 | 96 | 1014.7 |
| 20260507024556 | 52 | 0 | 0.0 | 4.0 | 0.00 | 0.57 | 0.57 | 96 | 1014.6 |
| 20260507024027 | 52 | 0 | 0.0 | 4.0 | 0.00 | 0.57 | 0.57 | 96 | 1014.4 |
| 20260507023526 | 52 | 0 | 1.0 | 4.0 | 0.00 | 0.57 | 0.57 | 96 | 1014.3 |
| 20260507023048 | 52 | 0 | 1.0 | 3.0 | 0.00 | 0.57 | 0.57 | 96 | 1014.6 |
| 20260507022530 | 52 | 0 | 0.0 | 1.0 | 0.00 | 0.57 | 0.57 | 96 | 1015.4 |
| 20260507022032 | 52 | 0 | 0.0 | 3.0 | 0.00 | 0.57 | 0.57 | 96 | 1015.6 |
| 20260507021550 | 52 | 0 | 0.0 | 3.0 | 0.00 | 0.57 | 0.57 | 96 | 1015.0 |
| 20260507021028 | 52 | 319 | 0.0 | 2.0 | 0.01 | 0.57 | 0.57 | 96 | 1015.1 |
| 20260507020527 | 52 | 313 | 0.0 | 2.0 | 0.01 | 0.57 | 0.57 | 96 | 1015.2 |
| 20260507020051 | 52 | 0 | 0.0 | 0.0 | 0.01 | 0.57 | 0.57 | 96 | 1015.6 |
| 20260507015528 | 52 | 0 | 0.0 | 0.0 | 0.01 | 0.58 | 0.57 | 95 | 1015.2 |
| 20260507015027 | 52 | 0 | 0.0 | 0.0 | 0.01 | 0.58 | 0.57 | 95 | 1015.3 |